Shungnak AP, Shungnak, AK, AK

5:51 PM AKST on December 14, 2019 (GMT -0900)
Shungnak AP, Shungnak, AK

Weather History for PAGH - October, 2019

Change the Weather History Date:

Wednesday, October 2, 2019

  Actual Average (WUND) Record (WUND)
Temperature  
Mean Temperature 32 °F -  
Max Temperature 39 °F - - (-1)
Min Temperature 26 °F - - (-1)
Degree Days  
Heating Degree Days 32    
Moisture  
Dew Point 30 °F    
Average Humidity 94    
Maximum Humidity 100    
Minimum Humidity 73    
Precipitation  
Precipitation 0.02 in - - ()
Sea Level Pressure  
Sea Level Pressure 29.91 in    
Wind  
Wind Speed 7 mph (ESE)    
Max Wind Speed 16 mph    
Max Gust Speed 21 mph    
Visibility 5 miles    
Events Fog , Rain , Snow    
Averages and records for this station are not official NWS values.
T = Trace of Precipitation, MM = Missing Value Source: NWS Daily Summary

Daily Weather History Graph

Daily Weather History Graph

Search for Another Location

Airport or City:

Astronomy

Oct. 02, 2019 Rise Set
Actual Time 8:43 AM AKDT 7:50 PM AKDT
Civil Twilight 7:50 AM AKDT 8:43 PM AKDT
Nautical Twilight 6:48 AM AKDT 9:45 PM AKDT
Astronomical Twilight 5:38 AM AKDT 10:54 PM AKDT
Moon 3:33 PM AKDT (10/2) 8:35 PM AKDT (10/2)
Length of Visible Light 12h 52m
Length of Day
11h 06m
Waxing Crescent, 22% of the Moon is Illuminated
Oct 2
Waxing Crescent
Oct 5
First Quarter
Oct 13
Full
Oct 21
Last Quarter
Oct 27
New

Hourly Weather History & Observations

Time (AKDT) Temp. Windchill Dew Point Humidity Pressure Visibility Wind Dir Wind Speed Gust Speed Precip Events Conditions
12:15 AM 30.2 °F 26.7 °F 30.2 °F 100% 29.92 in 1.8 mi East 3.5 mph - N/A   Overcast
12:20 AM 30.2 °F 24.3 °F 30.2 °F 100% 29.92 in 0.8 mi East 5.8 mph - N/A   Overcast
12:28 AM 30.2 °F 24.3 °F 30.2 °F 100% 29.92 in 1.0 mi ESE 5.8 mph - N/A   Overcast
12:32 AM 30.2 °F 24.3 °F 30.2 °F 100% 29.92 in 2.0 mi ESE 5.8 mph - N/A   Overcast
12:39 AM 30.2 °F 23.4 °F 30.2 °F 100% 29.92 in 6.0 mi ESE 6.9 mph - N/A   Overcast
12:49 AM 30.2 °F 22.6 °F 30.2 °F 100% 29.92 in 1.8 mi ESE 8.1 mph - N/A   Overcast
12:56 AM 30.9 °F 25.2 °F 30.0 °F 96% 29.94 in 1.5 mi ESE 5.8 mph - N/A   Overcast
1:29 AM 30.2 °F 23.4 °F 30.2 °F 100% 29.92 in 3.0 mi East 6.9 mph - N/A   Overcast
1:56 AM 30.9 °F 26.2 °F 30.0 °F 96% 29.94 in 7.0 mi ESE 4.6 mph - N/A   Overcast
2:03 AM 30.2 °F 26.7 °F 30.2 °F 100% 29.92 in 1.8 mi ESE 3.5 mph - N/A   Overcast
2:13 AM 30.2 °F 26.7 °F 30.2 °F 100% 29.92 in 1.0 mi ESE 3.5 mph - N/A   Overcast
2:23 AM 30.2 °F 25.4 °F 30.2 °F 100% 29.92 in 0.8 mi ESE 4.6 mph - N/A   Overcast
2:40 AM 30.2 °F 24.3 °F 30.2 °F 100% 29.92 in 1.2 mi ESE 5.8 mph - N/A   Overcast
2:53 AM 30.2 °F 25.4 °F 30.2 °F 100% 29.92 in 0.8 mi ESE 4.6 mph - N/A   Overcast
2:54 AM 30.9 °F 26.2 °F 30.9 °F 100% 29.94 in 0.8 mi ESE 4.6 mph - N/A   Overcast
3:01 AM 30.2 °F 26.7 °F 30.2 °F 100% 29.92 in 1.2 mi ESE 3.5 mph - N/A   Overcast
3:23 AM 30.2 °F - 30.2 °F 100% 29.92 in 1.0 mi Calm Calm - N/A   Overcast
3:35 AM 30.2 °F 26.7 °F 30.2 °F 100% 29.92 in 1.2 mi ESE 3.5 mph - N/A   Overcast
3:53 AM 32.0 °F 28.7 °F 30.2 °F 93% 29.92 in 1.0 mi ESE 3.5 mph - N/A   Overcast
3:56 AM 32.0 °F 28.7 °F 30.9 °F 96% 29.94 in 1.0 mi East 3.5 mph - N/A   Overcast
4:09 AM 32.0 °F 28.7 °F 30.2 °F 93% 29.92 in 1.2 mi ESE 3.5 mph - N/A   Overcast
4:28 AM 32.0 °F 26.4 °F 30.2 °F 93% 29.92 in 2.0 mi East 5.8 mph - N/A   Overcast
4:47 AM 32.0 °F 26.4 °F 30.2 °F 93% 29.92 in 3.0 mi East 5.8 mph - N/A   Overcast
4:54 AM 30.2 °F 25.4 °F 30.2 °F 100% 29.92 in 2.5 mi East 4.6 mph - N/A   Overcast
4:56 AM 30.9 °F 26.2 °F 30.9 °F 100% 29.94 in 2.5 mi East 4.6 mph - N/A   Overcast
5:12 AM 30.2 °F 23.4 °F 30.2 °F 100% 29.92 in 5.0 mi East 6.9 mph - N/A   Overcast
5:56 AM 30.0 °F 24.1 °F 28.9 °F 96% 29.94 in 10.0 mi East 5.8 mph - N/A   Overcast
6:21 AM 28.4 °F 23.3 °F 28.4 °F 100% 29.92 in 1.8 mi ESE 4.6 mph - N/A   Overcast
6:39 AM 28.4 °F 22.2 °F 28.4 °F 100% 29.92 in 0.8 mi ESE 5.8 mph - N/A   Overcast
6:49 AM 28.4 °F 19.7 °F 28.4 °F 100% 29.92 in 1.0 mi ESE 9.2 mph - N/A   Overcast
6:56 AM 28.0 °F 20.0 °F 28.0 °F 100% 29.94 in 1.2 mi ESE 8.1 mph - N/A   Overcast
7:04 AM 28.4 °F 20.4 °F 26.6 °F 93% 29.91 in 1.8 mi ESE 8.1 mph - N/A   Overcast
7:10 AM 28.4 °F 21.2 °F 26.6 °F 93% 29.91 in 3.0 mi ESE 6.9 mph - N/A   Overcast
7:23 AM 28.4 °F 21.2 °F 26.6 °F 93% 29.91 in 2.0 mi ESE 6.9 mph - N/A   Overcast
7:26 AM 28.4 °F 21.2 °F 26.6 °F 93% 29.91 in 1.0 mi ESE 6.9 mph - N/A   Overcast
7:29 AM 28.4 °F 20.4 °F 26.6 °F 93% 29.91 in 0.5 mi ESE 8.1 mph - N/A Fog Light Freezing Fog
7:43 AM 28.4 °F 19.7 °F 26.6 °F 93% 29.91 in 1.0 mi ESE 9.2 mph - N/A Snow Light Snow
7:46 AM 28.4 °F 19.7 °F 26.6 °F 93% 29.91 in 2.0 mi ESE 9.2 mph - N/A Snow Light Snow
7:56 AM 27.0 °F 16.1 °F 26.1 °F 96% 29.93 in 6.0 mi ESE 12.7 mph - N/A   Mostly Cloudy
8:13 AM 26.6 °F 16.2 °F 26.6 °F 100% 29.91 in 10.0 mi ESE 11.5 mph - N/A   Scattered Clouds
8:56 AM 26.1 °F 16.2 °F 25.0 °F 96% 29.92 in 10.0 mi ESE 10.4 mph - N/A   Clear
9:56 AM 27.0 °F 19.5 °F 25.0 °F 92% 29.92 in 10.0 mi ESE 6.9 mph - N/A   Scattered Clouds
10:56 AM 28.0 °F 18.1 °F 27.0 °F 96% 29.91 in 10.0 mi East 11.5 mph - N/A   Clear
11:56 AM 30.9 °F 19.8 °F 28.9 °F 92% 29.90 in 10.0 mi ESE 16.1 mph - N/A   Clear
12:56 PM 34.0 °F 23.8 °F 30.0 °F 85% 29.89 in 10.0 mi ESE 16.1 mph 19.6 mph N/A   Clear
1:56 PM 36.0 °F 26.7 °F 30.9 °F 82% 29.88 in 10.0 mi ESE 15.0 mph - N/A   Clear
2:56 PM 39.0 °F 31.4 °F 32.0 °F 76% 29.87 in 10.0 mi ESE 12.7 mph - N/A   Partly Cloudy
3:56 PM 39.0 °F 31.4 °F 32.0 °F 76% 29.86 in 10.0 mi East 12.7 mph - N/A   Overcast
4:56 PM 39.9 °F 32.5 °F 33.1 °F 77% 29.85 in 10.0 mi ESE 12.7 mph - N/A   Overcast
5:56 PM 39.0 °F 31.8 °F 32.0 °F 76% 29.85 in 10.0 mi ESE 11.5 mph - N/A   Overcast
6:56 PM 39.0 °F 32.3 °F 30.9 °F 73% 29.84 in 10.0 mi ESE 10.4 mph - N/A   Overcast
7:56 PM 37.9 °F 30.5 °F 30.9 °F 76% 29.85 in 10.0 mi ESE 11.5 mph - N/A   Overcast
8:56 PM 35.1 °F 25.9 °F 30.9 °F 85% 29.84 in 10.0 mi East 13.8 mph - 0.00 in Rain Light Rain
9:56 PM 35.1 °F 25.5 °F 30.9 °F 85% 29.84 in 10.0 mi East 15.0 mph - 0.00 in   Overcast
10:08 PM 35.6 °F 27.5 °F 30.2 °F 81% 29.82 in 10.0 mi ESE 11.5 mph - N/A   Overcast
10:56 PM 34.0 °F 23.8 °F 32.0 °F 92% 29.85 in 10.0 mi ESE 16.1 mph 20.7 mph 0.00 in   Overcast
11:56 PM 34.0 °F 24.2 °F 32.0 °F 92% 29.85 in 6.0 mi East 15.0 mph - 0.02 in Snow Light Snow